STARLINK-1928, 46758

Orbit data source: Space-Track

STARLINK-1928, 46758 is a payload satellite owned by SpaceX/Seattle (US) in LEO that was launched on Sat, 24 Oct 2020 UTC via an FALCON 9 launch vehicle from the Air Force Eastern Test Range (AFETR). Payload-class satellites include a variety of spacecraft equipped with specific instruments for various scientific and technological missions. These include communications satellites like Starlink; space stations such as the ISS; scientific satellites like the Hubble; Earth observation satellites from companies like Planet Labs, Umbra, and HawkEye 360; GPS; miniature CubeSats for education and research; and military/defense satellites.

Loading next visibility...
Identifier
46758, 2020-074V
Orbit
LEO
Country
Flag of USUS
Related business
Manufacturer
SpaceX/Seattle
Mission
Partially operational Commercial Communications
Bus & Motor
STARLINK, Unknown motor
Mass
260 kg wet, ~248 kg dry
Launch date (UTC)
2020-10-24 (6 years ago)
Launch vehicle
FALCON 9
Launch site
Air Force Eastern Test Range (AFETR)
Object type
Payload
Rocket body
Debris
Shape & HBR
Box + 1 Pan, 10.1 m
Radar Cross Section
13.562 m², Large (>1 m²)

Expand to show TLE details & history
Last TLE update: 7 hours ago

TLE from 7 hours ago
0 STARLINK-1928
1 46758U 20074V   26126.33335648  .00102114  00000-0  51154-3 0  9993
2 46758  53.0417 358.2171 0006881 180.0927 227.5659 15.80978273  6001
Epoch: 2026-05-06T08:00Z
TLE epoch observation values (Epoch: 2026-05-06T08:00:01.999Z)
Latitude
36.28308°
Longitude
47.32898°
Altitude
333.598 km
Speed
7.711 km/s
True Right ascension
02h 06m 07s
True Declination
36° 06' 32"
Sunlit
Object was in daylight at epoch
Visualization orbit readout
Latitude
Unknown
Longitude
Unknown
Altitude
Unknown
Speed
Unknown
Apparent Right ascension
Unknown
Apparent Declination
Unknown
Sunlit
N/A
Visualization observer readout
Local Sidereal Time
22:28:35
Azimuth
Unknown
Elevation
Unknown
Doppler factor
Unknown
Orbital elements
Apogee altitude
332.569 km
Perigee altitude
323.34 km
Semi-major axis
6,706.091 km
Eccentricity
0.00069
Inclination
53.0417°
RAAN
358.2171°
Arg. of periapsis
180.0927°
True anomaly
227.50774°
Mean anomaly
227.5659°
Eccentric anomaly
227.53682°
Mean motion
3.9522 °/min
Orbital period
91.09 mins
BSTAR
0.00051154
Loading maneuver chart data...
Computing Atmospheric mass density...

Documentation

Showing up to 5 results
|